Powrót do katalogu

METEOR 2-5 DEB

AktywnyPO
NORAD 28594·DEBRIS·🇷🇺 Russia

Wystrzelony Oct 31, 1979 z Plesetsk Cosmodrome

Loading…

Następne Przeloty (najbliższe 24 godziny)

TLE

ŚwieżeSource: Space-Track

Epoka: Sep 14, 2026, 08:39 UTC

1 28594U 79095E   26257.36082597  .00008171  00000-0  12359-2 0  9999
2 28594  81.1420 280.6744 0013261 267.3645  92.6043 14.74103284146765

Śledź METEOR 2-5 DEB w czasie rzeczywistym z AllMySat

Download on the App Store